Time,TemperatureF,DewpointF,PressureIn,WindDirection,WindDirectionDegrees,WindSpeedMPH,WindSpeedGustMPH,Humidity,HourlyPrecipIn,Conditions,Clouds,dailyrainin,SoftwareType,DateUTC
2013-12-09 00:01:00,-30.6,0.0,28.86,North,0,0.0,1.0,100,0.00,,,0.00,VWS V14.01,2013-12-09 06:01:00,
2013-12-09 00:06:00,-30.6,0.0,28.85,North,2,0.0,2.0,100,0.00,,,0.00,VWS V14.01,2013-12-09 06:06:00,
2013-12-09 00:11:00,-30.6,0.0,28.85,North,7,0.0,1.0,100,0.00,,,0.00,VWS V14.01,2013-12-09 06:11:00,
2013-12-09 00:16:00,-30.6,0.0,28.85,North,7,0.0,1.0,100,0.00,,,0.00,VWS V14.01,2013-12-09 06:16:00,
2013-12-09 00:21:00,-30.6,0.0,28.85,ENE,66,1.0,2.0,100,0.00,,,0.00,VWS V14.01,2013-12-09 06:21:00,
2013-12-09 00:26:00,-30.6,0.0,28.85,North,0,1.0,2.0,100,0.00,,,0.00,VWS V14.01,2013-12-09 06:26:00,
2013-12-09 00:31:00,-30.6,0.0,28.85,North,0,0.0,1.0,100,0.00,,,0.00,VWS V14.01,2013-12-09 06:31:00,
2013-12-09 00:36:00,-30.6,0.0,28.84,North,0,0.0,1.0,100,0.00,,,0.00,VWS V14.01,2013-12-09 06:36:00,
2013-12-09 00:41:00,-30.6,0.0,28.85,NW,315,0.0,2.0,100,0.00,,,0.00,VWS V14.01,2013-12-09 06:41:00,
2013-12-09 00:46:00,-30.6,0.0,28.84,NW,315,0.0,2.0,100,0.00,,,0.00,VWS V14.01,2013-12-09 06:46:00,
2013-12-09 00:51:00,-30.6,0.0,28.84,NW,316,0.0,1.0,100,0.00,,,0.00,VWS V14.01,2013-12-09 06:51:00,
2013-12-09 00:56:00,-30.6,0.0,28.84,NW,315,1.0,2.0,100,0.00,,,0.00,VWS V14.01,2013-12-09 06:56:00,
2013-12-09 01:01:00,-30.6,0.0,28.84,NW,315,2.0,2.0,100,0.00,,,0.00,VWS V14.01,2013-12-09 07:01:00,
2013-12-09 01:06:00,-30.6,0.0,28.84,NW,310,1.0,3.0,100,0.00,,,0.00,VWS V14.01,2013-12-09 07:06:00,
2013-12-09 01:11:00,-30.6,0.0,28.84,NW,310,1.0,2.0,100,0.00,,,0.00,VWS V14.01,2013-12-09 07:11:00,
2013-12-09 01:16:00,-30.6,0.0,28.83,NW,316,0.0,2.0,100,0.00,,,0.00,VWS V14.01,2013-12-09 07:16:00,
2013-12-09 01:21:00,-30.6,0.0,28.83,NW,315,2.0,2.0,100,0.00,,,0.00,VWS V14.01,2013-12-09 07:21:00,
2013-12-09 01:26:00,-30.6,0.0,28.83,NW,315,1.0,2.0,100,0.00,,,0.00,VWS V14.01,2013-12-09 07:26:00,
2013-12-09 01:31:00,-30.6,0.0,28.84,WNW,302,1.0,2.0,100,0.00,,,0.00,VWS V14.01,2013-12-09 07:31:00,
2013-12-09 01:36:00,-30.6,0.0,28.84,WNW,301,3.0,4.0,100,0.00,,,0.00,VWS V14.01,2013-12-09 07:36:00,
2013-12-09 01:41:00,-30.6,0.0,28.84,WNW,301,2.0,3.0,100,0.00,,,0.00,VWS V14.01,2013-12-09 07:41:00,
2013-12-09 01:46:00,-30.6,0.0,28.85,WNW,301,1.0,3.0,100,0.00,,,0.00,VWS V14.01,2013-12-09 07:46:00,
2013-12-09 01:51:00,-30.6,0.0,28.85,WNW,301,1.0,2.0,100,0.00,,,0.00,VWS V14.01,2013-12-09 07:51:00,
2013-12-09 01:56:00,-30.6,0.0,28.84,WNW,285,2.0,4.0,100,0.00,,,0.00,VWS V14.01,2013-12-09 07:56:00,
2013-12-09 02:01:00,-30.6,0.0,28.84,WNW,290,2.0,3.0,100,0.00,,,0.00,VWS V14.01,2013-12-09 08:01:00,
2013-12-09 02:06:00,-30.6,0.0,28.84,WNW,292,2.0,4.0,100,0.00,,,0.00,VWS V14.01,2013-12-09 08:06:00,
2013-12-09 02:11:00,-30.6,0.0,28.85,WNW,290,0.0,2.0,100,0.00,,,0.00,VWS V14.01,2013-12-09 08:11:00,
2013-12-09 02:16:00,-30.6,0.0,28.85,WNW,290,2.0,3.0,100,0.00,,,0.00,VWS V14.01,2013-12-09 08:16:00,
2013-12-09 02:21:00,-30.6,0.0,28.85,WNW,290,0.0,1.0,100,0.00,,,0.00,VWS V14.01,2013-12-09 08:21:00,
2013-12-09 02:26:00,-30.6,0.0,28.85,West,272,1.0,4.0,100,0.00,,,0.00,VWS V14.01,2013-12-09 08:26:00,
2013-12-09 02:31:00,-30.6,0.0,28.85,West,271,1.0,4.0,100,0.00,,,0.00,VWS V14.01,2013-12-09 08:31:00,
2013-12-09 02:36:00,-30.6,0.0,28.85,West,271,2.0,4.0,100,0.00,,,0.00,VWS V14.01,2013-12-09 08:36:00,
2013-12-09 02:41:00,-30.6,0.0,28.85,West,271,2.0,3.0,100,0.00,,,0.00,VWS V14.01,2013-12-09 08:41:00,
2013-12-09 02:46:00,-30.6,0.0,28.85,West,271,1.0,3.0,100,0.00,,,0.00,VWS V14.01,2013-12-09 08:46:00,
2013-12-09 02:51:00,-30.6,0.0,28.85,West,272,1.0,5.0,100,0.00,,,0.00,VWS V14.01,2013-12-09 08:51:00,
2013-12-09 02:56:00,-30.6,0.0,28.86,WSW,258,4.0,5.0,100,0.00,,,0.00,VWS V14.01,2013-12-09 08:56:00,
2013-12-09 03:01:00,-30.6,0.0,28.85,West,261,4.0,5.0,100,0.00,,,0.00,VWS V14.01,2013-12-09 09:01:00,
2013-12-09 03:06:00,-30.6,0.0,28.86,WSW,257,2.0,5.0,100,0.00,,,0.00,VWS V14.01,2013-12-09 09:06:00,
2013-12-09 03:11:00,-30.6,0.0,28.86,WSW,253,1.0,5.0,100,0.00,,,0.00,VWS V14.01,2013-12-09 09:11:00,
2013-12-09 03:16:00,-30.6,0.0,28.85,WNW,282,1.0,6.0,100,0.00,,,0.00,VWS V14.01,2013-12-09 09:16:00,
2013-12-09 03:21:00,-30.6,0.0,28.86,West,270,5.0,5.0,100,0.00,,,0.00,VWS V14.01,2013-12-09 09:21:00,
2013-12-09 03:26:00,-30.6,0.0,28.86,West,274,3.0,6.0,100,0.00,,,0.00,VWS V14.01,2013-12-09 09:26:00,
2013-12-09 03:31:00,-30.6,0.0,28.86,West,274,2.0,4.0,100,0.00,,,0.00,VWS V14.01,2013-12-09 09:31:00,
2013-12-09 03:36:00,-30.6,0.0,28.86,West,280,2.0,6.0,100,0.00,,,0.00,VWS V14.01,2013-12-09 09:36:00,
2013-12-09 03:41:00,-30.6,0.0,28.85,West,261,5.0,5.0,100,0.00,,,0.00,VWS V14.01,2013-12-09 09:41:00,
2013-12-09 03:46:00,-30.6,0.0,28.86,WNW,288,3.0,7.0,100,0.00,,,0.00,VWS V14.01,2013-12-09 09:46:00,
2013-12-09 03:50:00,-30.6,0.0,28.86,West,270,4.0,5.0,100,0.00,,,0.00,VWS V14.01,2013-12-09 09:50:00,
2013-12-09 03:55:00,-30.6,0.0,28.86,West,278,2.0,6.0,100,0.00,,,0.00,VWS V14.01,2013-12-09 09:55:00,
2013-12-09 04:00:00,-30.6,0.0,28.86,West,267,4.0,8.0,100,0.00,,,0.00,VWS V14.01,2013-12-09 10:00:00,
2013-12-09 04:05:00,-30.6,0.0,28.87,West,266,4.0,8.0,100,0.00,,,0.00,VWS V14.01,2013-12-09 10:05:00,
2013-12-09 04:10:00,-30.6,0.0,28.87,West,270,3.0,5.0,100,0.00,,,0.00,VWS V14.01,2013-12-09 10:10:00,
2013-12-09 04:15:00,-30.6,0.0,28.86,West,277,5.0,7.0,100,0.00,,,0.00,VWS V14.01,2013-12-09 10:15:00,
2013-12-09 04:20:00,-30.6,0.0,28.86,West,275,3.0,5.0,100,0.00,,,0.00,VWS V14.01,2013-12-09 10:20:00,
2013-12-09 04:25:00,-30.6,0.0,28.86,WNW,284,4.0,6.0,100,0.00,,,0.00,VWS V14.01,2013-12-09 10:25:00,
2013-12-09 04:31:00,-30.6,0.0,28.86,West,276,3.0,4.0,100,0.00,,,0.00,VWS V14.01,2013-12-09 10:31:00,
2013-12-09 04:36:00,-30.6,0.0,28.86,West,275,3.0,4.0,100,0.00,,,0.00,VWS V14.01,2013-12-09 10:36:00,
2013-12-09 04:40:00,-30.6,0.0,28.86,West,278,3.0,4.0,100,0.00,,,0.00,VWS V14.01,2013-12-09 10:40:00,
2013-12-09 04:45:00,-30.6,0.0,28.87,West,277,2.0,7.0,100,0.00,,,0.00,VWS V14.01,2013-12-09 10:45:00,
2013-12-09 04:50:00,-30.6,0.0,28.86,West,262,3.0,4.0,100,0.00,,,0.00,VWS V14.01,2013-12-09 10:50:00,
2013-12-09 04:55:00,-30.6,0.0,28.87,West,266,3.0,5.0,100,0.00,,,0.00,VWS V14.01,2013-12-09 10:55:00,
2013-12-09 05:00:00,-30.6,0.0,28.87,West,260,3.0,6.0,100,0.00,,,0.00,VWS V14.01,2013-12-09 11:00:00,
2013-12-09 05:05:00,-30.6,0.0,28.87,WSW,255,3.0,6.0,100,0.00,,,0.00,VWS V14.01,2013-12-09 11:05:00,
2013-12-09 05:10:00,-30.6,0.0,28.87,West,268,5.0,5.0,100,0.00,,,0.00,VWS V14.01,2013-12-09 11:10:00,
2013-12-09 05:15:00,-30.6,0.0,28.87,West,267,2.0,7.0,100,0.00,,,0.00,VWS V14.01,2013-12-09 11:15:00,
2013-12-09 05:20:00,-30.6,0.0,28.87,WSW,243,3.0,5.0,100,0.00,,,0.00,VWS V14.01,2013-12-09 11:20:00,
2013-12-09 05:25:00,-30.6,0.0,28.87,West,264,3.0,7.0,100,0.00,,,0.00,VWS V14.01,2013-12-09 11:25:00,
2013-12-09 05:30:00,-30.6,0.0,28.87,WSW,243,3.0,5.0,100,0.00,,,0.00,VWS V14.01,2013-12-09 11:30:00,
2013-12-09 05:35:00,-30.6,0.0,28.87,WSW,251,2.0,8.0,100,0.00,,CLR,0.00,VWS V14.01,2013-12-09 11:35:00,
2013-12-09 05:40:00,-30.6,0.0,28.87,WSW,257,3.0,4.0,100,0.00,,CLR,0.00,VWS V14.01,2013-12-09 11:40:00,
2013-12-09 05:45:00,-30.6,0.0,28.87,WSW,250,3.0,5.0,100,0.00,,CLR,0.00,VWS V14.01,2013-12-09 11:45:00,
2013-12-09 05:50:00,-30.6,0.0,28.87,WNW,284,2.0,4.0,100,0.00,,CLR,0.00,VWS V14.01,2013-12-09 11:50:00,
2013-12-09 05:55:00,-30.6,0.0,28.87,West,278,1.0,6.0,100,0.00,,CLR,0.00,VWS V14.01,2013-12-09 11:55:00,
2013-12-09 06:00:00,-30.6,0.0,28.87,WNW,287,2.0,4.0,100,0.00,,CLR,0.00,VWS V14.01,2013-12-09 12:00:00,
2013-12-09 06:05:00,-30.6,0.0,28.87,West,260,2.0,6.0,100,0.00,,CLR,0.00,VWS V14.01,2013-12-09 12:05:00,
2013-12-09 06:10:00,-30.6,0.0,28.87,West,264,2.0,3.0,100,0.00,,CLR,0.00,VWS V14.01,2013-12-09 12:10:00,
2013-12-09 06:15:00,-30.6,0.0,28.87,West,279,2.0,5.0,100,0.00,,CLR,0.00,VWS V14.01,2013-12-09 12:15:00,
2013-12-09 06:20:00,-30.6,0.0,28.87,West,278,2.0,2.0,100,0.00,,CLR,0.00,VWS V14.01,2013-12-09 12:20:00,
2013-12-09 06:25:00,-30.6,0.0,28.87,WSW,250,3.0,5.0,100,0.00,,CLR,0.00,VWS V14.01,2013-12-09 12:25:00,
2013-12-09 06:30:00,-30.6,0.0,28.88,WSW,249,2.0,2.0,100,0.00,,CLR,0.00,VWS V14.01,2013-12-09 12:30:00,
2013-12-09 06:35:00,-30.6,0.0,28.88,SW,216,1.0,5.0,100,0.00,,CLR,0.00,VWS V14.01,2013-12-09 12:35:00,
2013-12-09 06:40:00,-30.6,0.0,28.89,WSW,242,3.0,7.0,100,0.00,,CLR,0.00,VWS V14.01,2013-12-09 12:40:00,
2013-12-09 06:45:00,-30.6,0.0,28.90,SW,227,4.0,7.0,100,0.00,,CLR,0.00,VWS V14.01,2013-12-09 12:45:00,
2013-12-09 06:50:00,-30.6,0.0,28.90,WSW,240,3.0,4.0,100,0.00,,CLR,0.00,VWS V14.01,2013-12-09 12:50:00,
2013-12-09 06:55:00,-30.6,0.0,28.91,WSW,239,5.0,7.0,100,0.00,,CLR,0.00,VWS V14.01,2013-12-09 12:55:00,
2013-12-09 07:00:00,-30.6,0.0,28.91,SSW,208,0.0,5.0,100,0.00,,CLR,0.00,VWS V14.01,2013-12-09 13:00:00,
2013-12-09 07:05:00,-30.6,0.0,28.91,SSW,201,1.0,5.0,100,0.00,,CLR,0.00,VWS V14.01,2013-12-09 13:05:00,
2013-12-09 07:10:00,-30.6,0.0,28.91,SW,232,4.0,4.0,100,0.00,,CLR,0.00,VWS V14.01,2013-12-09 13:10:00,
2013-12-09 07:15:00,-30.6,0.0,28.91,SW,221,1.0,5.0,100,0.00,,CLR,0.00,VWS V14.01,2013-12-09 13:15:00,
2013-12-09 07:20:00,-30.6,0.0,28.91,SW,220,1.0,5.0,100,0.00,,CLR,0.00,VWS V14.01,2013-12-09 13:20:00,
2013-12-09 07:25:00,-30.6,0.0,28.91,WSW,240,3.0,5.0,100,0.00,,CLR,0.00,VWS V14.01,2013-12-09 13:25:00,
2013-12-09 07:30:00,-30.6,0.0,28.92,SSW,197,2.0,2.0,100,0.00,,CLR,0.00,VWS V14.01,2013-12-09 13:30:00,
2013-12-09 07:35:00,-30.6,0.0,28.92,WSW,241,1.0,6.0,100,0.00,,FEW014,0.00,VWS V14.01,2013-12-09 13:35:00,
2013-12-09 07:40:00,-30.6,0.0,28.92,SW,233,4.0,5.0,100,0.00,,FEW014,0.00,VWS V14.01,2013-12-09 13:40:00,
2013-12-09 07:45:00,-30.6,0.0,28.92,SSW,210,1.0,5.0,100,0.00,,FEW014,0.00,VWS V14.01,2013-12-09 13:45:00,
2013-12-09 07:50:00,-30.6,0.0,28.93,WSW,239,3.0,6.0,100,0.00,,FEW014,0.00,VWS V14.01,2013-12-09 13:50:00,
2013-12-09 07:55:00,-30.6,0.0,28.93,SW,231,4.0,9.0,100,0.00,,FEW014,0.00,VWS V14.01,2013-12-09 13:55:00,
2013-12-09 08:00:00,-30.6,0.0,28.93,WSW,239,2.0,5.0,100,0.00,,FEW014,0.00,VWS V14.01,2013-12-09 14:00:00,
2013-12-09 08:05:00,-30.6,0.0,28.93,WSW,249,5.0,6.0,100,0.00,,FEW014,0.00,VWS V14.01,2013-12-09 14:05:00,
2013-12-09 08:10:00,-30.6,0.0,28.93,SW,231,2.0,5.0,100,0.00,,FEW014,0.00,VWS V14.01,2013-12-09 14:10:00,
2013-12-09 08:15:00,-30.6,0.0,28.93,West,259,3.0,7.0,100,0.00,,FEW014,0.00,VWS V14.01,2013-12-09 14:15:00,
2013-12-09 08:20:00,-30.6,0.0,28.93,SW,236,3.0,6.0,100,0.00,,FEW014,0.00,VWS V14.01,2013-12-09 14:20:00,
2013-12-09 08:25:00,-30.6,0.0,28.93,WSW,241,0.0,6.0,100,0.00,,FEW014,0.00,VWS V14.01,2013-12-09 14:25:00,
2013-12-09 08:30:00,-30.6,0.0,28.94,SW,221,2.0,5.0,100,0.00,,FEW014,0.00,VWS V14.01,2013-12-09 14:30:00,
2013-12-09 08:35:00,-30.6,0.0,28.94,SW,234,3.0,9.0,100,0.00,,FEW230,0.00,VWS V14.01,2013-12-09 14:35:00,
2013-12-09 08:40:00,-30.6,0.0,28.94,WSW,244,7.0,8.0,100,0.00,,FEW230,0.00,VWS V14.01,2013-12-09 14:40:00,
2013-12-09 08:45:00,-30.6,0.0,28.94,SSW,203,4.0,8.0,100,0.00,,FEW230,0.00,VWS V14.01,2013-12-09 14:45:00,
2013-12-09 08:50:00,-30.6,0.0,28.94,WSW,253,3.0,3.0,100,0.00,,FEW230,0.00,VWS V14.01,2013-12-09 14:50:00,
2013-12-09 08:55:00,-30.6,0.0,28.94,SW,226,4.0,7.0,100,0.00,,FEW230,0.00,VWS V14.01,2013-12-09 14:55:00,
2013-12-09 09:00:00,-30.6,0.0,28.94,WSW,251,1.0,2.0,100,0.00,,FEW230,0.00,VWS V14.01,2013-12-09 15:00:00,
2013-12-09 09:05:00,-30.6,0.0,28.95,WSW,249,0.0,7.0,100,0.00,,FEW230,0.00,VWS V14.01,2013-12-09 15:05:00,
2013-12-09 09:10:00,-30.6,0.0,28.94,West,276,1.0,10.0,100,0.00,,FEW230,0.00,VWS V14.01,2013-12-09 15:10:00,
2013-12-09 09:15:00,-30.6,0.0,28.94,SSW,207,2.0,10.0,100,0.00,,FEW230,0.00,VWS V14.01,2013-12-09 15:15:00,
2013-12-09 09:20:00,-30.6,0.0,28.94,SSW,198,4.0,6.0,100,0.00,,FEW230,0.00,VWS V14.01,2013-12-09 15:20:00,
2013-12-09 09:25:00,-30.6,0.0,28.93,WNW,293,2.0,8.0,100,0.00,,FEW230,0.00,VWS V14.01,2013-12-09 15:25:00,
2013-12-09 09:30:00,-30.6,0.0,28.94,West,277,1.0,5.0,100,0.00,,FEW230,0.00,VWS V14.01,2013-12-09 15:30:00,
2013-12-09 09:35:00,-30.6,0.0,28.94,West,271,5.0,10.0,100,0.00,,,0.00,VWS V14.01,2013-12-09 15:35:00,
2013-12-09 09:40:00,-30.6,0.0,28.94,WSW,250,7.0,10.0,100,0.00,,,0.00,VWS V14.01,2013-12-09 15:40:00,
2013-12-09 09:45:00,-30.6,0.0,28.94,WSW,241,7.0,14.0,100,0.00,,,0.00,VWS V14.01,2013-12-09 15:45:00,
2013-12-09 09:50:00,-30.6,0.0,28.94,WNW,284,6.0,9.0,100,0.00,,,0.00,VWS V14.01,2013-12-09 15:50:00,
2013-12-09 09:55:00,-30.6,0.0,28.94,WSW,257,6.0,11.0,100,0.00,,,0.00,VWS V14.01,2013-12-09 15:55:00,
2013-12-09 10:00:00,-30.6,0.0,28.94,SW,233,11.0,13.0,100,0.00,,,0.00,VWS V14.01,2013-12-09 16:00:00,
2013-12-09 10:05:00,-30.6,0.0,28.94,WSW,256,10.0,13.0,100,0.00,,,0.00,VWS V14.01,2013-12-09 16:05:00,
2013-12-09 10:10:00,-30.6,0.0,28.93,SSW,205,8.0,11.0,100,0.00,,,0.00,VWS V14.01,2013-12-09 16:10:00,
2013-12-09 10:15:00,-30.6,0.0,28.94,WSW,252,7.0,14.0,100,0.00,,,0.00,VWS V14.01,2013-12-09 16:15:00,
2013-12-09 10:20:00,-30.6,0.0,28.94,West,274,7.0,12.0,100,0.00,,,0.00,VWS V14.01,2013-12-09 16:20:00,
2013-12-09 10:25:00,-30.6,0.0,28.94,West,262,9.0,16.0,100,0.00,,,0.00,VWS V14.01,2013-12-09 16:25:00,
2013-12-09 10:30:00,-30.6,0.0,28.94,WNW,295,2.0,10.0,100,0.00,,,0.00,VWS V14.01,2013-12-09 16:30:00,
2013-12-09 10:35:00,-30.6,0.0,28.94,WNW,282,1.0,10.0,100,0.00,,SCT011,0.00,VWS V14.01,2013-12-09 16:35:00,
2013-12-09 10:40:00,-30.6,0.0,28.95,WSW,252,5.0,7.0,100,0.00,,SCT011,0.00,VWS V14.01,2013-12-09 16:40:00,
2013-12-09 10:45:00,-30.6,0.0,28.94,West,259,7.0,17.0,100,0.00,,SCT011,0.00,VWS V14.01,2013-12-09 16:45:00,
2013-12-09 10:50:00,-30.6,0.0,28.93,SW,218,2.0,4.0,100,0.00,,SCT011,0.00,VWS V14.01,2013-12-09 16:50:00,
2013-12-09 10:55:00,-30.6,0.0,28.94,SW,231,9.0,11.0,100,0.00,,SCT011,0.00,VWS V14.01,2013-12-09 16:55:00,
2013-12-09 11:00:00,-30.6,0.0,28.94,West,263,4.0,12.0,100,0.00,,SCT011,0.00,VWS V14.01,2013-12-09 17:00:00,
2013-12-09 11:05:00,-30.6,0.0,28.94,WSW,249,6.0,14.0,100,0.00,,SCT011,0.00,VWS V14.01,2013-12-09 17:05:00,
2013-12-09 11:10:00,-30.6,0.0,28.94,SW,223,5.0,8.0,100,0.00,,SCT011,0.00,VWS V14.01,2013-12-09 17:10:00,
2013-12-09 11:15:00,-30.6,0.0,28.94,WSW,243,12.0,15.0,100,0.00,,SCT011,0.00,VWS V14.01,2013-12-09 17:15:00,
2013-12-09 11:20:00,-30.6,0.0,28.93,SSW,210,5.0,10.0,100,0.00,,SCT011,0.00,VWS V14.01,2013-12-09 17:20:00,
2013-12-09 11:25:00,-30.6,0.0,28.93,SSW,211,8.0,11.0,100,0.00,,SCT011,0.00,VWS V14.01,2013-12-09 17:25:00,
2013-12-09 11:30:00,-30.6,0.0,28.93,SW,227,5.0,7.0,100,0.00,,SCT011,0.00,VWS V14.01,2013-12-09 17:30:00,
2013-12-09 11:35:00,-30.6,0.0,28.93,SSW,197,3.0,15.0,100,0.00,,FEW020,0.00,VWS V14.01,2013-12-09 17:35:00,
2013-12-09 11:40:00,-30.6,0.0,28.93,SSW,208,4.0,7.0,100,0.00,,FEW020,0.00,VWS V14.01,2013-12-09 17:40:00,
2013-12-09 11:45:00,-30.6,0.0,28.93,SSW,209,3.0,9.0,100,0.00,,FEW020,0.00,VWS V14.01,2013-12-09 17:45:00,
2013-12-09 11:50:00,-30.6,0.0,28.93,SSW,201,4.0,15.0,100,0.00,,FEW020,0.00,VWS V14.01,2013-12-09 17:50:00,
2013-12-09 11:55:00,-30.6,0.0,28.93,SW,218,7.0,15.0,100,0.00,,FEW020,0.00,VWS V14.01,2013-12-09 17:55:00,
2013-12-09 12:00:00,-30.6,0.0,28.93,SSW,197,10.0,20.0,100,0.00,,FEW020,0.00,VWS V14.01,2013-12-09 18:00:00,
2013-12-09 12:05:00,-30.6,0.0,28.93,SW,219,6.0,20.0,100,0.00,,FEW020,0.00,VWS V14.01,2013-12-09 18:05:00,
2013-12-09 12:10:00,-30.6,0.0,28.94,SSW,200,5.0,10.0,100,0.00,,FEW020,0.00,VWS V14.01,2013-12-09 18:10:00,
2013-12-09 12:15:00,-30.6,0.0,28.94,SW,219,7.0,16.0,100,0.00,,FEW020,0.00,VWS V14.01,2013-12-09 18:15:00,
2013-12-09 12:20:00,-30.6,0.0,28.95,WSW,252,14.0,25.0,100,0.00,,FEW020,0.00,VWS V14.01,2013-12-09 18:20:00,
2013-12-09 12:25:00,-30.6,0.0,28.94,SW,224,11.0,25.0,100,0.00,,FEW020,0.00,VWS V14.01,2013-12-09 18:25:00,
2013-12-09 12:30:00,-30.6,0.0,28.95,SSW,204,9.0,15.0,100,0.00,,FEW020,0.00,VWS V14.01,2013-12-09 18:30:00,
2013-12-09 12:35:00,-30.6,0.0,28.96,SSW,207,7.0,15.0,100,0.00,,SCT250,0.00,VWS V14.01,2013-12-09 18:35:00,
2013-12-09 12:40:00,-30.6,0.0,28.95,SW,219,7.0,17.0,100,0.00,,SCT250,0.00,VWS V14.01,2013-12-09 18:40:00,
2013-12-09 12:45:00,-30.6,0.0,28.94,South,178,8.0,19.0,100,0.00,,SCT250,0.00,VWS V14.01,2013-12-09 18:45:00,
2013-12-09 12:50:00,-30.6,0.0,28.94,SSW,193,6.0,8.0,100,0.00,,SCT250,0.00,VWS V14.01,2013-12-09 18:50:00,
2013-12-09 12:55:00,-30.6,0.0,28.95,SW,222,12.0,17.0,100,0.00,,SCT250,0.00,VWS V14.01,2013-12-09 18:55:00,
2013-12-09 13:00:00,-30.6,0.0,28.95,WSW,240,13.0,13.0,100,0.00,,SCT250,0.00,VWS V14.01,2013-12-09 19:00:00,
2013-12-09 13:05:00,-30.6,0.0,28.95,West,260,5.0,15.0,100,0.00,,SCT250,0.00,VWS V14.01,2013-12-09 19:05:00,
2013-12-09 13:10:00,-30.6,0.0,28.95,West,265,15.0,15.0,100,0.00,,SCT250,0.00,VWS V14.01,2013-12-09 19:10:00,
2013-12-09 13:15:00,-30.6,0.0,28.96,WSW,237,5.0,22.0,100,0.00,,SCT250,0.00,VWS V14.01,2013-12-09 19:15:00,
2013-12-09 13:20:00,-30.6,0.0,28.96,SW,220,5.0,14.0,100,0.00,,SCT250,0.00,VWS V14.01,2013-12-09 19:20:00,
2013-12-09 13:25:00,-30.6,0.0,28.96,SW,228,5.0,15.0,100,0.00,,SCT250,0.00,VWS V14.01,2013-12-09 19:25:00,
2013-12-09 13:30:00,-30.6,0.0,28.97,SW,235,8.0,15.0,100,0.00,,SCT250,0.00,VWS V14.01,2013-12-09 19:30:00,
2013-12-09 13:35:00,-30.6,0.0,28.96,SSW,211,6.0,17.0,100,0.00,,SCT250,0.00,VWS V14.01,2013-12-09 19:35:00,
2013-12-09 13:40:00,-30.6,0.0,28.97,SW,223,6.0,16.0,100,0.00,,SCT250,0.00,VWS V14.01,2013-12-09 19:40:00,
2013-12-09 13:45:00,-30.6,0.0,28.97,SW,226,5.0,20.0,100,0.00,,SCT250,0.00,VWS V14.01,2013-12-09 19:45:00,
2013-12-09 13:50:00,-30.6,0.0,28.97,SW,225,5.0,9.0,100,0.00,,SCT250,0.00,VWS V14.01,2013-12-09 19:50:00,
2013-12-09 13:55:00,-30.6,0.0,28.97,SSW,213,4.0,12.0,100,0.00,,SCT250,0.00,VWS V14.01,2013-12-09 19:55:00,
2013-12-09 14:00:00,-30.6,0.0,28.97,SSW,200,4.0,11.0,100,0.00,,SCT250,0.00,VWS V14.01,2013-12-09 20:00:00,
2013-12-09 14:05:00,-30.6,0.0,28.97,SW,231,5.0,18.0,100,0.00,,SCT250,0.00,VWS V14.01,2013-12-09 20:05:00,
2013-12-09 14:10:00,-30.6,0.0,28.97,SW,227,3.0,6.0,100,0.00,,SCT250,0.00,VWS V14.01,2013-12-09 20:10:00,
2013-12-09 14:15:00,-30.6,0.0,28.97,SSW,204,11.0,14.0,100,0.00,,SCT250,0.00,VWS V14.01,2013-12-09 20:15:00,
2013-12-09 14:20:00,-30.6,0.0,28.98,WSW,246,3.0,6.0,100,0.00,,SCT250,0.00,VWS V14.01,2013-12-09 20:20:00,
2013-12-09 14:25:00,-30.6,0.0,28.98,SW,230,6.0,12.0,100,0.00,,SCT250,0.00,VWS V14.01,2013-12-09 20:25:00,
2013-12-09 14:30:00,-30.6,0.0,28.98,WSW,258,12.0,14.0,100,0.00,,SCT250,0.00,VWS V14.01,2013-12-09 20:30:00,
2013-12-09 14:35:00,-30.6,0.0,28.98,WSW,244,11.0,14.0,100,0.00,,FEW022,0.00,VWS V14.01,2013-12-09 20:35:00,
2013-12-09 14:40:00,-30.6,0.0,28.98,SSW,209,12.0,13.0,100,0.00,,FEW022,0.00,VWS V14.01,2013-12-09 20:40:00,
2013-12-09 14:45:00,-30.6,0.0,28.99,WSW,247,3.0,15.0,100,0.00,,FEW022,0.00,VWS V14.01,2013-12-09 20:45:00,
2013-12-09 14:50:00,-30.6,0.0,28.99,WSW,254,11.0,20.0,100,0.00,,FEW022,0.00,VWS V14.01,2013-12-09 20:50:00,
2013-12-09 14:55:00,-30.6,0.0,28.99,West,267,4.0,20.0,100,0.00,,FEW022,0.00,VWS V14.01,2013-12-09 20:55:00,
2013-12-09 15:00:00,-30.6,0.0,28.99,West,260,14.0,18.0,100,0.00,,FEW022,0.00,VWS V14.01,2013-12-09 21:00:00,
2013-12-09 15:05:00,-30.6,0.0,29.00,WSW,257,8.0,18.0,100,0.00,,FEW022,0.00,VWS V14.01,2013-12-09 21:05:00,
2013-12-09 15:10:00,-30.6,0.0,29.00,West,271,9.0,14.0,100,0.00,,FEW022,0.00,VWS V14.01,2013-12-09 21:10:00,
2013-12-09 15:15:00,-30.6,0.0,29.01,WSW,245,4.0,15.0,100,0.00,,FEW022,0.00,VWS V14.01,2013-12-09 21:15:00,
2013-12-09 15:20:00,-30.6,0.0,29.01,WSW,248,3.0,5.0,100,0.00,,FEW022,0.00,VWS V14.01,2013-12-09 21:20:00,
2013-12-09 15:25:00,-30.6,0.0,29.01,WNW,282,3.0,13.0,100,0.00,,FEW022,0.00,VWS V14.01,2013-12-09 21:25:00,
2013-12-09 15:30:00,-30.6,0.0,29.01,South,170,7.0,7.0,100,0.00,,FEW022,0.00,VWS V14.01,2013-12-09 21:30:00,
2013-12-09 15:35:00,-30.6,0.0,29.01,West,272,2.0,13.0,100,0.00,,FEW022,0.00,VWS V14.01,2013-12-09 21:35:00,
2013-12-09 15:40:00,-30.6,0.0,29.02,WSW,255,4.0,12.0,100,0.00,,FEW022,0.00,VWS V14.01,2013-12-09 21:40:00,
2013-12-09 15:45:00,-30.6,0.0,29.02,West,267,4.0,12.0,100,0.00,,FEW022,0.00,VWS V14.01,2013-12-09 21:45:00,
2013-12-09 15:50:00,-30.6,0.0,29.02,SW,236,9.0,18.0,100,0.00,,FEW022,0.00,VWS V14.01,2013-12-09 21:50:00,
2013-12-09 15:55:00,-30.6,0.0,29.03,WSW,249,5.0,18.0,100,0.00,,FEW022,0.00,VWS V14.01,2013-12-09 21:55:00,
2013-12-09 16:00:00,-30.6,0.0,29.03,WSW,251,4.0,9.0,100,0.00,,FEW022,0.00,VWS V14.01,2013-12-09 22:00:00,
2013-12-09 16:05:00,-30.6,0.0,29.03,SW,224,5.0,9.0,100,0.00,,FEW022,0.00,VWS V14.01,2013-12-09 22:05:00,
2013-12-09 16:10:00,-30.6,0.0,29.03,WSW,253,8.0,10.0,100,0.00,,FEW022,0.00,VWS V14.01,2013-12-09 22:10:00,
2013-12-09 16:15:00,-30.6,0.0,29.04,South,169,1.0,10.0,100,0.00,,FEW022,0.00,VWS V14.01,2013-12-09 22:15:00,
2013-12-09 16:20:00,-30.6,0.0,29.04,SW,221,3.0,6.0,100,0.00,,FEW022,0.00,VWS V14.01,2013-12-09 22:20:00,
2013-12-09 16:25:00,-30.6,0.0,29.04,West,280,4.0,9.0,100,0.00,,FEW022,0.00,VWS V14.01,2013-12-09 22:25:00,
2013-12-09 16:30:00,-30.6,0.0,29.04,SSW,209,5.0,6.0,100,0.00,,FEW022,0.00,VWS V14.01,2013-12-09 22:30:00,
2013-12-09 16:35:00,-30.6,0.0,29.04,SW,225,4.0,9.0,100,0.00,,CLR,0.00,VWS V14.01,2013-12-09 22:35:00,
2013-12-09 16:40:00,-30.6,0.0,29.05,SW,215,5.0,5.0,100,0.00,,CLR,0.00,VWS V14.01,2013-12-09 22:40:00,
2013-12-09 16:45:00,-30.6,0.0,29.05,SSW,195,5.0,10.0,100,0.00,,CLR,0.00,VWS V14.01,2013-12-09 22:45:00,
2013-12-09 16:50:00,-30.6,0.0,29.05,WSW,241,3.0,6.0,100,0.00,,CLR,0.00,VWS V14.01,2013-12-09 22:50:00,
2013-12-09 16:55:00,-30.6,0.0,29.05,SW,228,3.0,11.0,100,0.00,,CLR,0.00,VWS V14.01,2013-12-09 22:55:00,
2013-12-09 17:00:00,-30.6,0.0,29.05,WSW,239,4.0,6.0,100,0.00,,CLR,0.00,VWS V14.01,2013-12-09 23:00:00,
2013-12-09 17:05:00,-30.6,0.0,29.05,SW,224,3.0,8.0,100,0.00,,CLR,0.00,VWS V14.01,2013-12-09 23:05:00,
2013-12-09 17:10:00,-30.6,0.0,29.06,SW,222,3.0,7.0,100,0.00,,CLR,0.00,VWS V14.01,2013-12-09 23:10:00,
2013-12-09 17:15:00,-30.6,0.0,29.05,SW,223,2.0,9.0,100,0.00,,CLR,0.00,VWS V14.01,2013-12-09 23:15:00,
2013-12-09 17:20:00,-30.6,0.0,29.05,SSW,208,4.0,5.0,100,0.00,,CLR,0.00,VWS V14.01,2013-12-09 23:20:00,
2013-12-09 17:25:00,-30.6,0.0,29.06,SW,221,6.0,9.0,100,0.00,,CLR,0.00,VWS V14.01,2013-12-09 23:25:00,
2013-12-09 17:30:00,-30.6,0.0,29.06,SW,236,11.0,11.0,100,0.00,,CLR,0.00,VWS V14.01,2013-12-09 23:30:00,
2013-12-09 17:35:00,-30.6,0.0,29.06,SW,225,5.0,12.0,100,0.00,,FEW025,0.00,VWS V14.01,2013-12-09 23:35:00,
2013-12-09 17:40:00,-30.6,0.0,29.06,WSW,256,8.0,10.0,100,0.00,,FEW025,0.00,VWS V14.01,2013-12-09 23:40:00,
2013-12-09 17:45:00,-30.6,0.0,29.06,WSW,251,14.0,14.0,100,0.00,,FEW025,0.00,VWS V14.01,2013-12-09 23:45:00,
2013-12-09 17:50:00,-30.6,0.0,29.06,WSW,238,4.0,11.0,100,0.00,,FEW025,0.00,VWS V14.01,2013-12-09 23:50:00,
2013-12-09 17:55:00,-30.6,0.0,29.06,SW,235,4.0,13.0,100,0.00,,FEW025,0.00,VWS V14.01,2013-12-09 23:55:00,
2013-12-09 18:00:00,-30.6,0.0,29.07,SW,215,4.0,8.0,100,0.00,,FEW025,0.00,VWS V14.01,2013-12-10 00:00:00,
2013-12-09 18:05:00,-30.6,0.0,29.07,SSW,208,4.0,11.0,100,0.00,,CLR,0.00,VWS V14.01,2013-12-10 00:05:00,
2013-12-09 18:10:00,-30.6,0.0,29.06,SW,231,4.0,12.0,100,0.00,,CLR,0.00,VWS V14.01,2013-12-10 00:10:00,
2013-12-09 18:15:00,-30.6,0.0,29.06,SW,221,5.0,12.0,100,0.00,,CLR,0.00,VWS V14.01,2013-12-10 00:15:00,
2013-12-09 18:20:00,-30.6,0.0,29.07,SW,218,4.0,5.0,100,0.00,,CLR,0.00,VWS V14.01,2013-12-10 00:20:00,
2013-12-09 18:25:00,-30.6,0.0,29.07,WSW,243,4.0,13.0,100,0.00,,CLR,0.00,VWS V14.01,2013-12-10 00:25:00,
2013-12-09 18:30:00,-30.6,0.0,29.06,SSW,195,3.0,5.0,100,0.00,,CLR,0.00,VWS V14.01,2013-12-10 00:30:00,
2013-12-09 18:35:00,-30.6,0.0,29.06,SSW,211,2.0,10.0,100,0.00,,CLR,0.00,VWS V14.01,2013-12-10 00:35:00,
2013-12-09 18:40:00,-30.6,0.0,29.06,SSW,211,3.0,3.0,100,0.00,,CLR,0.00,VWS V14.01,2013-12-10 00:40:00,
2013-12-09 18:45:00,-30.6,0.0,29.06,SSW,196,2.0,8.0,100,0.00,,CLR,0.00,VWS V14.01,2013-12-10 00:45:00,
2013-12-09 18:50:00,-30.6,0.0,29.06,SSW,199,5.0,8.0,100,0.00,,CLR,0.00,VWS V14.01,2013-12-10 00:50:00,
2013-12-09 18:55:00,-30.6,0.0,29.06,SSW,210,1.0,8.0,100,0.00,,CLR,0.00,VWS V14.01,2013-12-10 00:55:00,
2013-12-09 19:00:00,-30.6,0.0,29.06,SW,218,5.0,9.0,100,0.00,,CLR,0.00,VWS V14.01,2013-12-10 01:00:00,
2013-12-09 19:05:00,-30.6,0.0,29.06,SSW,207,8.0,9.0,100,0.00,,CLR,0.00,VWS V14.01,2013-12-10 01:05:00,
2013-12-09 19:10:00,-30.6,0.0,29.06,SW,215,0.0,10.0,100,0.00,,CLR,0.00,VWS V14.01,2013-12-10 01:10:00,
2013-12-09 19:15:00,-30.6,0.0,29.06,SSW,213,5.0,10.0,100,0.00,,CLR,0.00,VWS V14.01,2013-12-10 01:15:00,
2013-12-09 19:20:00,-30.6,0.0,29.06,SW,224,4.0,7.0,100,0.00,,CLR,0.00,VWS V14.01,2013-12-10 01:20:00,
2013-12-09 19:25:00,-30.6,0.0,29.07,SW,225,4.0,12.0,100,0.00,,CLR,0.00,VWS V14.01,2013-12-10 01:25:00,
2013-12-09 19:30:00,-30.6,0.0,29.07,SW,216,6.0,11.0,100,0.00,,CLR,0.00,VWS V14.01,2013-12-10 01:30:00,
2013-12-09 19:35:00,-30.6,0.0,29.07,South,186,3.0,11.0,100,0.00,,CLR,0.00,VWS V14.01,2013-12-10 01:35:00,
2013-12-09 19:40:00,-30.6,0.0,29.07,SW,229,7.0,7.0,100,0.00,,CLR,0.00,VWS V14.01,2013-12-10 01:40:00,
2013-12-09 19:45:00,-30.6,0.0,29.07,SW,218,3.0,11.0,100,0.00,,CLR,0.00,VWS V14.01,2013-12-10 01:45:00,
2013-12-09 19:50:00,-30.6,0.0,29.07,West,265,2.0,8.0,100,0.00,,CLR,0.00,VWS V14.01,2013-12-10 01:50:00,
2013-12-09 19:55:00,-30.6,0.0,29.07,SW,236,4.0,9.0,100,0.00,,CLR,0.00,VWS V14.01,2013-12-10 01:55:00,
2013-12-09 20:00:00,-30.6,0.0,29.07,SSW,193,4.0,5.0,100,0.00,,CLR,0.00,VWS V14.01,2013-12-10 02:00:00,
2013-12-09 20:05:00,-30.6,0.0,29.08,West,268,3.0,11.0,100,0.00,,CLR,0.00,VWS V14.01,2013-12-10 02:05:00,
2013-12-09 20:10:00,-30.6,0.0,29.08,West,272,5.0,5.0,100,0.00,,CLR,0.00,VWS V14.01,2013-12-10 02:10:00,
2013-12-09 20:15:00,-30.6,0.0,29.07,WSW,253,1.0,9.0,100,0.00,,CLR,0.00,VWS V14.01,2013-12-10 02:15:00,
2013-12-09 20:20:00,-30.6,0.0,29.07,SW,231,1.0,5.0,100,0.00,,CLR,0.00,VWS V14.01,2013-12-10 02:20:00,
2013-12-09 20:25:00,-30.6,0.0,29.07,SSW,213,3.0,6.0,100,0.00,,CLR,0.00,VWS V14.01,2013-12-10 02:25:00,
2013-12-09 20:30:00,-30.6,0.0,29.07,WSW,246,2.0,5.0,100,0.00,,CLR,0.00,VWS V14.01,2013-12-10 02:30:00,
2013-12-09 20:35:00,-30.6,0.0,29.06,WSW,255,1.0,5.0,100,0.00,,CLR,0.00,VWS V14.01,2013-12-10 02:35:00,
2013-12-09 20:40:00,-30.6,0.0,29.06,SSW,210,5.0,5.0,100,0.00,,CLR,0.00,VWS V14.01,2013-12-10 02:40:00,
2013-12-09 20:45:00,-30.6,0.0,29.07,WSW,239,2.0,5.0,100,0.00,,CLR,0.00,VWS V14.01,2013-12-10 02:45:00,
2013-12-09 20:50:00,-30.6,0.0,29.06,SW,220,0.0,2.0,100,0.00,,CLR,0.00,VWS V14.01,2013-12-10 02:50:00,
2013-12-09 20:55:00,-30.6,0.0,29.06,WSW,241,1.0,5.0,100,0.00,,CLR,0.00,VWS V14.01,2013-12-10 02:55:00,
2013-12-09 21:00:00,-30.6,0.0,29.06,SW,222,2.0,5.0,100,0.00,,CLR,0.00,VWS V14.01,2013-12-10 03:00:00,
2013-12-09 21:05:00,-30.6,0.0,29.06,WSW,239,1.0,6.0,100,0.00,,CLR,0.00,VWS V14.01,2013-12-10 03:05:00,
2013-12-09 21:10:00,-30.6,0.0,29.06,SW,219,1.0,4.0,100,0.00,,CLR,0.00,VWS V14.01,2013-12-10 03:10:00,
2013-12-09 21:15:00,-30.6,0.0,29.06,SW,217,3.0,7.0,100,0.00,,CLR,0.00,VWS V14.01,2013-12-10 03:15:00,
2013-12-09 21:20:00,-30.6,0.0,29.05,WSW,241,2.0,3.0,100,0.00,,CLR,0.00,VWS V14.01,2013-12-10 03:20:00,
2013-12-09 21:25:00,-30.6,0.0,29.05,SW,230,0.0,6.0,100,0.00,,CLR,0.00,VWS V14.01,2013-12-10 03:25:00,
2013-12-09 21:30:00,-30.6,0.0,29.04,SSW,206,1.0,3.0,100,0.00,,CLR,0.00,VWS V14.01,2013-12-10 03:30:00,
2013-12-09 21:35:00,-30.6,0.0,29.05,SSW,205,2.0,7.0,100,0.00,,CLR,0.00,VWS V14.01,2013-12-10 03:35:00,
2013-12-09 21:40:00,-30.6,0.0,29.05,SSW,206,2.0,7.0,100,0.00,,CLR,0.00,VWS V14.01,2013-12-10 03:40:00,
2013-12-09 21:45:00,-30.6,0.0,29.04,SSW,207,4.0,7.0,100,0.00,,CLR,0.00,VWS V14.01,2013-12-10 03:45:00,
2013-12-09 21:50:00,-30.6,0.0,29.04,South,186,1.0,6.0,100,0.00,,CLR,0.00,VWS V14.01,2013-12-10 03:50:00,
2013-12-09 21:55:00,-30.6,0.0,29.04,SW,222,5.0,6.0,100,0.00,,CLR,0.00,VWS V14.01,2013-12-10 03:55:00,
2013-12-09 22:00:00,-30.6,0.0,29.04,SW,226,2.0,3.0,100,0.00,,CLR,0.00,VWS V14.01,2013-12-10 04:00:00,
2013-12-09 22:05:00,-30.6,0.0,29.04,SSW,210,3.0,5.0,100,0.00,,CLR,0.00,VWS V14.01,2013-12-10 04:05:00,
2013-12-09 22:10:00,-30.6,0.0,29.04,SW,218,2.0,3.0,100,0.00,,CLR,0.00,VWS V14.01,2013-12-10 04:10:00,
2013-12-09 22:15:00,-30.6,0.0,29.03,SSW,212,2.0,8.0,100,0.00,,CLR,0.00,VWS V14.01,2013-12-10 04:15:00,
2013-12-09 22:20:00,-30.6,0.0,29.03,SW,214,3.0,4.0,100,0.00,,CLR,0.00,VWS V14.01,2013-12-10 04:20:00,
2013-12-09 22:25:00,-30.6,0.0,29.04,SW,215,3.0,5.0,100,0.00,,CLR,0.00,VWS V14.01,2013-12-10 04:25:00,
2013-12-09 22:30:00,-30.6,0.0,29.04,SSW,202,2.0,3.0,100,0.00,,CLR,0.00,VWS V14.01,2013-12-10 04:30:00,
2013-12-09 22:35:00,-30.6,0.0,29.04,SW,226,4.0,7.0,100,0.00,,CLR,0.00,VWS V14.01,2013-12-10 04:35:00,
2013-12-09 22:40:00,-30.6,0.0,29.03,SW,217,2.0,5.0,100,0.00,,CLR,0.00,VWS V14.01,2013-12-10 04:40:00,
2013-12-09 22:45:00,-30.6,0.0,29.03,SW,228,3.0,5.0,100,0.00,,CLR,0.00,VWS V14.01,2013-12-10 04:45:00,
2013-12-09 22:50:00,-30.6,0.0,29.03,SSW,211,3.0,3.0,100,0.00,,CLR,0.00,VWS V14.01,2013-12-10 04:50:00,
2013-12-09 22:55:00,-30.6,0.0,29.04,South,191,1.0,4.0,100,0.00,,CLR,0.00,VWS V14.01,2013-12-10 04:55:00,
2013-12-09 23:00:00,-30.6,0.0,29.04,WSW,253,1.0,3.0,100,0.00,,CLR,0.00,VWS V14.01,2013-12-10 05:00:00,
2013-12-09 23:01:00,-30.6,0.0,29.04,SW,215,2.0,4.0,100,0.00,,CLR,0.00,VWS V14.01,2013-12-10 05:01:00,
2013-12-09 23:06:00,-30.6,0.0,29.03,SW,223,2.0,4.0,100,0.00,,CLR,0.00,VWS V14.01,2013-12-10 05:06:00,
2013-12-09 23:11:00,-30.6,0.0,29.03,SW,217,1.0,6.0,100,0.00,,CLR,0.00,VWS V14.01,2013-12-10 05:11:00,
2013-12-09 23:16:00,-30.6,0.0,29.03,South,188,2.0,6.0,100,0.00,,CLR,0.00,VWS V14.01,2013-12-10 05:16:00,
2013-12-09 23:21:00,-30.6,0.0,29.03,South,179,5.0,5.0,100,0.00,,CLR,0.00,VWS V14.01,2013-12-10 05:21:00,
2013-12-09 23:26:00,-30.6,0.0,29.03,South,183,0.0,6.0,100,0.00,,CLR,0.00,VWS V14.01,2013-12-10 05:26:00,
2013-12-09 23:31:00,-30.6,0.0,29.03,South,187,2.0,6.0,100,0.00,,CLR,0.00,VWS V14.01,2013-12-10 05:31:00,
2013-12-09 23:36:00,-30.6,0.0,29.02,SSW,202,6.0,8.0,100,0.00,,CLR,0.00,VWS V14.01,2013-12-10 05:36:00,
2013-12-09 23:41:00,-30.6,0.0,29.02,SSW,199,3.0,5.0,100,0.00,,CLR,0.00,VWS V14.01,2013-12-10 05:41:00,
2013-12-09 23:46:00,-30.6,0.0,29.02,SSW,196,2.0,6.0,100,0.00,,CLR,0.00,VWS V14.01,2013-12-10 05:46:00,
2013-12-09 23:51:00,-30.6,0.0,29.02,SSW,200,2.0,6.0,100,0.00,,CLR,0.00,VWS V14.01,2013-12-10 05:51:00,
2013-12-09 23:56:00,-30.6,0.0,29.02,South,183,5.0,9.0,100,0.00,,CLR,0.00,VWS V14.01,2013-12-10 05:56:00,